Weather Roundup
Issued by NWS Chicago, IL

Home | Current Version | Previous Version | Text Only | Print | Product List | Glossary Off
Versions: 1 2 3 4 5 6 7 8 9 10 11 12 13 14 15 16 17 18 19 20 21 22 23 24 25 26 27 28 29 30 31 32 33 34 35 36 37 38 39 40 41 42 43 44 45 46 47 48 49 50

000
NZUS59 KLOT 252000
HRRLOT

CHICAGO AREA WEATHER ROUNDUP
NATIONAL WEATHER SERVICE CHICAGO/ROMEOVILLE IL
200 PM CST SUN JAN 25 2015

NOTE: "FAIR" INDICATES FEW OR NO CLOUDS BELOW 12,000 FEET WITH NO
SIGNIFICANT WEATHER AND/OR OBSTRUCTIONS TO VISIBILITY.

* THESE STATIONS ARE NOT UNDER NWS QUALITY CONTROL. THEY ALSO MAY NOT
  REPORT WEATHER SUCH AS PRECIPITATION OR FOG.

ILZ005-006-012>014-019>023-252100-
NORTHEAST ILLINOIS

CITY           SKY/WX    TMP DP  RH WIND       PRES   REMARKS
OHARE          LGT SNOW  28  23  81 NE20G29   29.83R WCI  15
MIDWAY         LGT SNOW  31  27  85 NE21G29   29.81R FOG     WCI  18
AURORA         LGT SNOW  29  22  75 NE23G32   29.81R WCI  15
WAUKEGAN       CLOUDY    26  17  68 NE17G29   29.87R WCI  13
DUPAGE AIRPORT LGT SNOW  28  22  78 NE23G30   29.81R WCI  14
WHEELING       LGT SNOW  27  22  81 NE16G25   29.87R WCI  15
NORTHERLY IS     N/A     29  27  92 NE20        N/A  WCI  16
$$

WIZ051-052-058>065-066-070>072-252100-
SOUTHEAST WISCONSIN

CITY           SKY/WX    TMP DP  RH WIND       PRES   REMARKS
MILWAUKEE      PTSUNNY   26  14  60 NE21G26   29.92R WCI  12
KENOSHA*       CLOUDY    27  16  63 NE20G29   29.89R WCI  13
RACINE*        CLOUDY    26  15  63 N22G30    29.92R WCI  12
WAUKESHA       MOSUNNY   25  10  54 N18G25    29.92S WCI  11
$$

INZ001>003-010>013-019-020-252100-
NORTHWEST INDIANA

CITY           SKY/WX    TMP DP  RH WIND       PRES   REMARKS
GARY*          LGT SNOW  30  27  86 NE17G30   29.80R WCI  18
MICHIGAN CITY* NOT AVBL
RENSSELAER*    NOT AVBL
$$

LMZ740>746-252100-
SOUTHERN LAKE MICHIGAN

STATION/POSITION TIME  SKY/WX   TEMP WIND        PRES    VSBY
                                AIR  DIR/SP/G
                 (UTC)          (F)  (DEG/KT/KT) (MB)    (MI)
HARRISON CRIB    1900            28   30/ 25/ 28   N/A
BURNHAM HARBOR   2000            29   30/ 14/ 23   N/A
CALUMET HARBOR   1900            29   30/ 18/ 25   N/A
BURNS HARBOR     NOT AVBL
MICHIGAN CITY    1900            28   20/ 22/ 23   N/A
$$

ABBREVIATIONS USED IN REMARKS
   TC - TEMPERATURE IN CELSIUS
  WCI - WIND CHILL INDEX
   HX - HEAT INDEX
  VSB - VISIBILITY
$$


USA.gov is the U.S. government's official web portal to all federal, state and local government web resources and services.